Change the Weather History Date:

Saturday, January 21, 2012

  Actual Average (KGAD) Record (KGAD)
Temperature  
Mean Temperature 53 °F -  
Max Temperature 64 °F 49 °F 77 °F (1937)
Min Temperature 42 °F 29 °F 11 °F (1940)
Degree Days  
Heating Degree Days 12    
Growing Degree Days 3 (Base 50)    
Moisture  
Dew Point 54 °F    
Average Humidity 97    
Maximum Humidity 100    
Minimum Humidity 82    
Precipitation  
Precipitation 0.33 in - - ()
Sea Level Pressure  
Sea Level Pressure 29.94 in    
Wind  
Wind Speed 13 mph (WNW)    
Max Wind Speed 25 mph    
Max Gust Speed 43 mph    
Visibility 7 miles    
Events Rain , Thunderstorm    
Averages and records for this station are not official NWS values.
T = Trace of Precipitation, MM = Missing Value Source: NWS Daily Summary

Daily Weather History Graph

Daily Weather History Graph

Search for Another Location

Airport or City:

Trip Planner

Search our weather history database for the weather conditions in past years. The results will help you decide how hot, cold, wet, or windy it might be!

Date:

Astronomy

Jan. 21, 2012 Rise Set
Actual Time 6:48 AM CST 5:03 PM CST
Civil Twilight 6:22 AM CST 5:30 PM CST
Nautical Twilight 5:51 AM CST 6:01 PM CST
Astronomical Twilight 5:21 AM CST 6:31 PM CST
Moon 5:17 AM CST (1/21) 3:40 PM CST (1/21)
Length of Visible Light 11h 08m
Length of Day
10h 14m
Waning Crescent, 3% of the Moon is Illuminated
Jan 21
Waning Crescent
Jan 23
New
Jan 30
First Quarter
Feb 7
Full
Feb 14
Last Quarter

Hourly Weather History & Observations

Time (CST) Temp. Windchill Dew Point Humidity Pressure Visibility Wind Dir Wind Speed Gust Speed Precip Events Conditions
12:15 AM 64.4 °F - 62.6 °F 94% 29.91 in 10.0 mi SW 21.9 mph 27.6 mph N/A   Overcast
12:35 AM 64.4 °F - 62.6 °F 94% 29.91 in 10.0 mi SW 19.6 mph 25.3 mph N/A   Overcast
12:55 AM 64.4 °F - 62.6 °F 94% 29.91 in 10.0 mi SW 17.3 mph 28.8 mph N/A   Overcast
1:15 AM 64.4 °F - 62.6 °F 94% 29.91 in 10.0 mi SW 16.1 mph 25.3 mph N/A   Overcast
1:35 AM 64.4 °F - 62.6 °F 94% 29.91 in 10.0 mi SW 16.1 mph 25.3 mph N/A Rain Rain
2:35 AM 64.4 °F - 62.6 °F 94% 29.89 in 10.0 mi SW 13.8 mph 20.7 mph N/A   Mostly Cloudy
2:55 AM 62.6 °F - 60.8 °F 94% 29.87 in 10.0 mi SW 16.1 mph 23.0 mph N/A   Scattered Clouds
3:15 AM 62.6 °F - 60.8 °F 94% 29.87 in 10.0 mi SW 17.3 mph 25.3 mph N/A   Mostly Cloudy
3:35 AM 62.6 °F - 60.8 °F 94% 29.87 in 10.0 mi SW 16.1 mph 21.9 mph N/A   Overcast
3:55 AM 64.4 °F - 62.6 °F 94% 29.87 in 10.0 mi SW 11.5 mph 20.7 mph N/A   Overcast
4:15 AM 64.4 °F - 62.6 °F 94% 29.86 in 10.0 mi SW 16.1 mph 21.9 mph N/A   Overcast
4:35 AM 64.4 °F - 62.6 °F 94% 29.86 in 10.0 mi SW 12.7 mph 23.0 mph N/A   Overcast
4:55 AM 64.4 °F - 62.6 °F 94% 29.86 in 10.0 mi SW 10.4 mph - N/A   Overcast
5:15 AM 64.4 °F - 62.6 °F 94% 29.86 in 10.0 mi SW 13.8 mph 18.4 mph N/A   Overcast
5:35 AM 64.4 °F - 62.6 °F 94% 29.86 in 10.0 mi WSW 12.7 mph 18.4 mph N/A   Overcast
6:15 AM 62.6 °F - 62.6 °F 100% 29.85 in 10.0 mi SW 10.4 mph - N/A   Overcast
6:35 AM 62.6 °F - 62.6 °F 100% 29.86 in 10.0 mi SW 10.4 mph - N/A Thunderstorm Overcast
6:55 AM 62.6 °F - 62.6 °F 100% 29.86 in 10.0 mi SW 9.2 mph 16.1 mph N/A   Overcast
7:15 AM 62.6 °F - 62.6 °F 100% 29.86 in 10.0 mi SW 9.2 mph 18.4 mph N/A   Overcast
7:35 AM 64.4 °F - 62.6 °F 94% 29.85 in 10.0 mi SW 11.5 mph 18.4 mph N/A Thunderstorm Overcast
7:55 AM 62.6 °F - 60.8 °F 94% 29.87 in 4.0 mi West 19.6 mph 31.1 mph 0.11 in Rain , Thunderstorm Thunderstorms and Rain
8:15 AM 60.8 °F - 55.4 °F 82% 29.89 in 10.0 mi West 25.3 mph 42.6 mph 0.01 in Rain , Thunderstorm Light Thunderstorms and Rain
8:35 AM 57.2 °F - 55.4 °F 94% 29.92 in 7.0 mi West 16.1 mph 20.7 mph 0.07 in Rain , Thunderstorm Thunderstorms and Rain
8:55 AM 57.2 °F - 55.4 °F 94% 29.93 in 10.0 mi West 12.7 mph 18.4 mph 0.10 in Rain , Thunderstorm Light Thunderstorms and Rain
9:15 AM 55.4 °F - 55.4 °F 100% 29.92 in 5.0 mi NW 8.1 mph - 0.06 in Rain , Thunderstorm Rain
9:35 AM 55.4 °F - 55.4 °F 100% 29.92 in 10.0 mi WNW 6.9 mph - 0.08 in Rain , Thunderstorm Light Thunderstorms and Rain
9:55 AM 57.2 °F - 57.2 °F 100% 29.93 in 10.0 mi West 8.1 mph - 0.08 in Rain Light Rain
10:15 AM 57.2 °F - 57.2 °F 100% 29.92 in 10.0 mi NW 6.9 mph - N/A   Overcast
10:55 AM 55.4 °F - 55.4 °F 100% 29.93 in 5.0 mi North 12.7 mph - 0.01 in Rain Light Rain
11:15 AM 55.4 °F - 55.4 °F 100% 29.91 in 7.0 mi NE 3.5 mph - 0.02 in Rain Rain
11:35 AM 55.4 °F - 55.4 °F 100% 29.91 in 10.0 mi NW 4.6 mph - 0.02 in   Mostly Cloudy
11:55 AM 59.0 °F - 57.2 °F 94% 29.91 in 10.0 mi WNW 3.5 mph - 0.03 in   Mostly Cloudy
12:15 PM 59.0 °F - 55.4 °F 88% 29.92 in 10.0 mi NW 6.9 mph - N/A   Mostly Cloudy
12:35 PM 57.2 °F - 55.4 °F 94% 29.94 in 10.0 mi WNW 12.7 mph - N/A   Overcast
1:15 PM 51.8 °F - 51.8 °F 100% 29.94 in 10.0 mi NNW 11.5 mph - N/A   Overcast
1:35 PM 50.0 °F - 50.0 °F 100% 29.94 in 7.0 mi NW 8.1 mph - N/A   Overcast
1:55 PM 50.0 °F - 50.0 °F 100% 29.94 in 7.0 mi NNW 11.5 mph - N/A   Overcast
2:15 PM 50.0 °F - 48.2 °F 94% 29.96 in 7.0 mi NW 9.2 mph - N/A   Overcast
2:35 PM 48.2 °F - 46.4 °F 93% 29.97 in 7.0 mi NW 9.2 mph - N/A   Overcast
2:55 PM 46.4 °F 43.5 °F 46.4 °F 100% 29.98 in 7.0 mi NNW 5.8 mph - N/A   Overcast
3:15 PM 46.4 °F 42.9 °F 46.4 °F 100% 30.00 in 5.0 mi NNW 6.9 mph - N/A   Overcast
3:35 PM 46.4 °F 42.9 °F 46.4 °F 100% 30.00 in 3.0 mi NNW 6.9 mph - N/A   Overcast
3:55 PM 46.4 °F 43.5 °F 46.4 °F 100% 30.00 in 3.0 mi NNW 5.8 mph - N/A   Overcast
4:15 PM 46.4 °F 44.3 °F 44.6 °F 93% 30.01 in 4.0 mi NNW 4.6 mph - N/A   Overcast
4:35 PM 44.6 °F 41.4 °F 44.6 °F 100% 30.01 in 4.0 mi NW 5.8 mph - N/A   Overcast
4:55 PM 44.6 °F 40.2 °F 44.6 °F 100% 30.01 in 5.0 mi NNW 8.1 mph - N/A   Overcast
5:15 PM 44.6 °F 42.2 °F 44.6 °F 100% 30.01 in 5.0 mi NNW 4.6 mph - N/A   Overcast
5:35 PM 44.6 °F 42.2 °F 44.6 °F 100% 30.02 in 5.0 mi NW 4.6 mph - N/A   Overcast
5:55 PM 44.6 °F 40.7 °F 44.6 °F 100% 30.02 in 3.0 mi North 6.9 mph - N/A   Overcast
6:35 PM 42.8 °F 40.1 °F 42.8 °F 100% 30.04 in 1.8 mi NNW 4.6 mph - N/A   Overcast
6:55 PM 42.8 °F - 42.8 °F 100% 30.04 in 1.2 mi Calm Calm - N/A   Overcast
7:15 PM 42.8 °F 40.1 °F 42.8 °F 100% 30.03 in 0.8 mi NNE 4.6 mph - N/A   Overcast
7:35 PM 42.8 °F 38.0 °F 42.8 °F 100% 30.02 in 0.8 mi NE 8.1 mph - N/A   Overcast
7:55 PM 42.8 °F 37.5 °F 42.8 °F 100% 30.03 in 0.8 mi NNE 9.2 mph - N/A   Overcast
8:15 PM 42.8 °F 39.3 °F 42.8 °F 100% 30.04 in 1.2 mi NE 5.8 mph - N/A   Overcast
8:35 PM 42.8 °F 39.3 °F 42.8 °F 100% 30.06 in 2.0 mi NE 5.8 mph - N/A   Overcast
8:55 PM 42.8 °F 41.1 °F 42.8 °F 100% 30.06 in 2.0 mi ENE 3.5 mph - N/A   Overcast
9:15 PM 42.8 °F 39.3 °F 42.8 °F 100% 30.05 in 1.2 mi NE 5.8 mph - N/A   Overcast
9:35 PM 42.8 °F 40.1 °F 42.8 °F 100% 30.06 in 1.5 mi NE 4.6 mph - N/A   Overcast
9:55 PM 42.8 °F 40.1 °F 42.8 °F 100% 30.05 in 1.0 mi ENE 4.6 mph - N/A   Overcast
10:15 PM 42.8 °F 40.1 °F 42.8 °F 100% 30.05 in 1.0 mi ENE 4.6 mph - N/A   Overcast
10:35 PM 42.8 °F - 42.8 °F 100% 30.06 in 1.0 mi Calm Calm - N/A   Overcast
10:55 PM 42.8 °F - 42.8 °F 100% 30.06 in 0.8 mi Calm Calm - N/A   Overcast
11:35 PM 44.6 °F - 44.6 °F 100% 30.06 in 0.8 mi Calm Calm - N/A   Overcast